Weather History for Erzincan, Turkey

Change the Weather History Date:

Tuesday, January 29, 2013

  Actual Average Record
Temperature  
Mean Temperature 33 °F -  
Max Temperature 44 °F 39 °F - ()
Min Temperature 22 °F 23 °F - ()
Degree Days  
Heating Degree Days 32    
Moisture  
Dew Point 28 °F    
Average Humidity 80    
Maximum Humidity 100    
Minimum Humidity 59    
Precipitation  
Precipitation 0.00 in 0.04 in - ()
Sea Level Pressure  
Sea Level Pressure 29.78 in    
Wind  
Wind Speed 4 mph ()    
Max Wind Speed 15 mph    
Max Gust Speed -    
Visibility 5.3 miles    
Events Rain    
T = Trace of Precipitation, MM = Missing Value Source: Averaged Metar Reports

Daily Weather History Graph

Daily Weather History Graph

Search for Another Location

Airport:

Trip Planner

Search our weather history database for the weather conditions in past years. The results will help you decide how hot, cold, wet, or windy it might be!

Date:

Astronomy

Jan. 29, 2013 Rise Set
Actual Time 6:32 AM EET 4:38 PM EET
Civil Twilight 6:03 AM EET 5:06 PM EET
Nautical Twilight 5:31 AM EET 5:39 PM EET
Astronomical Twilight 4:59 AM EET 6:10 PM EET
Moon 7:11 PM EET (1/29) 7:18 AM EET (1/29)
Length of Visible Light 11h 02m
Length of Day
10h 05m
Waning Gibbous, 95% of the Moon is Illuminated
Jan 29
Waning Gibbous
Feb 3
Last Quarter
Feb 10
New
Feb 17
First Quarter
Feb 25
Full

Hourly Weather History & Observations

Time (EET) Temp. Windchill Dew Point Humidity Pressure Visibility Wind Dir Wind Speed Gust Speed Precip Events Conditions
12:50 AM 26.6 °F 20.0 °F 26.6 °F 100% 29.80 in 3.7 mi East 5.8 mph - N/A   Scattered Clouds
1:50 AM 26.6 °F - 26.6 °F 100% 29.83 in 2.8 mi Calm Calm - N/A   Scattered Clouds
2:00 AM 27 °F - 27 °F 99%  in 3 mi Calm Calm - -   Mist
2:50 AM 26.6 °F 20.0 °F 26.6 °F 100% 29.80 in 2.5 mi NNW 5.8 mph - N/A   Mist
3:50 AM 26.6 °F 22.6 °F 24.8 °F 93% 29.77 in 2.8 mi Variable 3.5 mph - N/A   Mist
4:50 AM 26.6 °F 22.6 °F 26.6 °F 100% 29.77 in - East 3.5 mph - N/A   Mist
5:50 AM 24.8 °F - 24.8 °F 100% 29.77 in 3.7 mi Calm Calm - N/A   Scattered Clouds
6:50 AM 23.0 °F 18.4 °F 23.0 °F 100% 29.80 in 4.3 mi West 3.5 mph - N/A   Scattered Clouds
7:50 AM 26.6 °F - 24.8 °F 93% 29.77 in 4.3 mi Calm Calm - N/A   Scattered Clouds
8:00 AM 26 °F - 26 °F 99%  in 4 mi Calm Calm - -   Mist
8:50 AM 32.0 °F - 28.4 °F 87% 29.77 in 6.2 mi Calm Calm - N/A   Partly Cloudy
9:50 AM 35.6 °F - 28.4 °F 75% 29.77 in 6.2 mi SE 1.2 mph - N/A   Partly Cloudy
10:50 AM 39.2 °F - 30.2 °F 70% 29.74 in 6.2 mi Calm Calm - N/A   Partly Cloudy
11:50 AM 39.2 °F 37.0 °F 30.2 °F 70% 29.71 in 6.2 mi NW 3.5 mph - N/A   Partly Cloudy
12:50 PM 44.6 °F - 32.0 °F 61% 29.68 in 6.2 mi Variable 1.2 mph - N/A   Scattered Clouds
1:50 PM 39.2 °F - 30.2 °F 70% 29.71 in 6.2 mi Variable 1.2 mph - N/A   Mostly Cloudy
2:00 PM 40 °F - 31 °F 59%  in 6 mi SSE 1.2 mph - -   Partly Cloudy
2:50 PM 41.0 °F 36.4 °F 30.2 °F 65% 29.71 in 6.2 mi WNW 6.9 mph - N/A   Mostly Cloudy
3:50 PM 39.2 °F 32.0 °F 32.0 °F 75% 29.74 in 6.2 mi WNW 11.5 mph - N/A   Mostly Cloudy
4:50 PM 37.4 °F 28.9 °F 32.0 °F 81% 29.77 in 6.2 mi West 13.8 mph - N/A Rain Light Rain
5:50 PM 37.4 °F 29.3 °F 28.4 °F 70% 29.77 in 6.2 mi West 12.7 mph - N/A   Mostly Cloudy
6:50 PM 37.4 °F 29.3 °F 28.4 °F 70% 29.80 in 6.2 mi WNW 12.7 mph - N/A   Mostly Cloudy
7:50 PM 35.6 °F 26.2 °F 26.6 °F 70% 29.83 in 6.2 mi WNW 15.0 mph - N/A   Mostly Cloudy
8:00 PM 35 °F - 26 °F 61%  in 6 mi WNW 15.0 mph - -   Partly Cloudy
8:50 PM 35.6 °F 26.6 °F 24.8 °F 65% 29.83 in 6.2 mi WNW 13.8 mph - N/A   Mostly Cloudy
9:50 PM 33.8 °F 24.8 °F 24.8 °F 70% 29.86 in 6.2 mi WNW 12.7 mph - N/A   Mostly Cloudy
10:50 PM 35.6 °F 27.1 °F 24.8 °F 65% 29.89 in 6.2 mi WNW 12.7 mph - N/A   Mostly Cloudy
11:50 PM 33.8 °F 26.4 °F 24.8 °F 70% 29.89 in 6.2 mi NW 9.2 mph - N/A   Mostly Cloudy